Year,Month,Day,Hour,Minute,Value (Times are PST for temperature in C)
2007,02,12,00,00,6.40
2007,02,12,00,01,6.40
2007,02,12,00,02,6.40
2007,02,12,00,03,6.40
2007,02,12,00,04,6.40
2007,02,12,00,05,6.40
2007,02,12,00,06,6.40
2007,02,12,00,07,6.40
2007,02,12,00,08,6.40
2007,02,12,00,09,6.40
2007,02,12,00,10,6.40
2007,02,12,00,11,6.40
2007,02,12,00,12,6.40
2007,02,12,01,02,6.20
2007,02,12,01,03,6.20
2007,02,12,01,04,6.20
2007,02,12,01,05,6.20
2007,02,12,01,06,6.20
2007,02,12,01,07,6.10
2007,02,12,01,08,6.10
2007,02,12,01,09,6.10
2007,02,12,01,10,6.10
2007,02,12,01,11,6.10
2007,02,12,01,12,6.10
2007,02,12,01,13,6.10
2007,02,12,01,14,6.10
2007,02,12,01,15,6.10
2007,02,12,01,16,6.00
2007,02,12,01,17,6.00
2007,02,12,01,18,6.00
2007,02,12,01,19,6.00
2007,02,12,01,20,6.00
2007,02,12,01,21,6.00
2007,02,12,01,22,5.90
2007,02,12,01,23,5.90
2007,02,12,01,24,5.90
2007,02,12,01,25,5.90
2007,02,12,01,26,5.90
2007,02,12,01,27,5.90
2007,02,12,01,28,5.90
2007,02,12,01,29,5.90
2007,02,12,01,30,5.90
2007,02,12,01,31,5.90
2007,02,12,01,32,5.80
2007,02,12,01,33,5.80
2007,02,12,01,34,5.80
2007,02,12,01,35,5.80
2007,02,12,01,36,5.80
2007,02,12,01,37,5.80
2007,02,12,01,38,5.80
2007,02,12,01,39,5.80
2007,02,12,01,40,5.80
2007,02,12,01,41,5.80
2007,02,12,01,42,5.80
2007,02,12,01,43,5.80
2007,02,12,01,44,5.70
2007,02,12,01,45,5.70
2007,02,12,01,46,5.70
2007,02,12,01,47,5.70
2007,02,12,01,48,5.70
2007,02,12,01,49,5.70
2007,02,12,01,50,5.70
2007,02,12,01,51,5.70
2007,02,12,01,52,5.70
2007,02,12,01,53,5.70
2007,02,12,01,54,5.70
2007,02,12,01,55,5.60
2007,02,12,01,56,5.60
2007,02,12,01,57,5.60
2007,02,12,01,58,5.60
2007,02,12,01,59,5.60
2007,02,12,02,00,5.60
2007,02,12,02,01,5.60
2007,02,12,02,02,5.60
2007,02,12,02,03,5.60
2007,02,12,02,04,5.60
2007,02,12,02,05,5.60
2007,02,12,02,06,5.60
2007,02,12,02,07,5.60
2007,02,12,02,08,5.60
2007,02,12,02,09,5.60
2007,02,12,02,10,5.60
2007,02,12,02,11,5.60
2007,02,12,02,12,5.60
2007,02,12,02,13,5.50
2007,02,12,02,14,5.50
2007,02,12,02,15,5.50
2007,02,12,02,16,5.50
2007,02,12,02,17,5.50
2007,02,12,02,18,5.50
2007,02,12,02,19,5.40
2007,02,12,02,20,5.40
2007,02,12,02,21,5.40
2007,02,12,02,22,5.40
2007,02,12,02,23,5.40
2007,02,12,02,24,5.40
2007,02,12,02,25,5.40
2007,02,12,02,26,5.40
2007,02,12,02,27,5.40
2007,02,12,02,28,5.40
2007,02,12,02,29,5.40
2007,02,12,02,30,5.40
2007,02,12,02,31,5.40
2007,02,12,02,32,5.40
2007,02,12,02,33,5.40
2007,02,12,02,34,5.40
2007,02,12,02,35,5.40
2007,02,12,02,36,5.40
2007,02,12,02,37,5.40
2007,02,12,02,38,5.40
2007,02,12,02,39,5.30
2007,02,12,02,40,5.30
2007,02,12,02,41,5.30
2007,02,12,02,42,5.30
2007,02,12,02,43,5.30
2007,02,12,02,44,5.30
2007,02,12,02,45,5.30
2007,02,12,02,46,5.30
2007,02,12,02,47,5.20
2007,02,12,02,48,5.20
2007,02,12,02,49,5.20
2007,02,12,02,50,5.20
2007,02,12,02,51,5.20
2007,02,12,02,52,5.20
2007,02,12,02,53,5.20
2007,02,12,02,54,5.20
2007,02,12,02,55,5.20
2007,02,12,02,56,5.20
2007,02,12,02,57,5.20
2007,02,12,02,58,5.20
2007,02,12,02,59,5.20
2007,02,12,03,00,5.10
2007,02,12,03,01,5.10
2007,02,12,03,02,5.10
2007,02,12,03,03,5.10
2007,02,12,03,04,5.10
2007,02,12,03,05,5.10
2007,02,12,03,06,5.10
2007,02,12,03,07,5.10
2007,02,12,03,08,5.10
2007,02,12,03,09,5.10
2007,02,12,03,10,5.10
2007,02,12,03,11,5.10
2007,02,12,03,12,5.10
2007,02,12,03,13,5.10
2007,02,12,03,14,5.00
2007,02,12,03,15,5.00
2007,02,12,03,16,5.00
2007,02,12,03,17,5.00
2007,02,12,03,18,5.00
2007,02,12,03,19,5.00
2007,02,12,03,20,5.00
2007,02,12,03,21,4.90
2007,02,12,03,22,4.90
2007,02,12,03,23,4.90
2007,02,12,03,24,4.90
2007,02,12,03,25,4.90
2007,02,12,03,26,4.90
2007,02,12,03,27,4.80
2007,02,12,03,28,4.80
2007,02,12,03,29,4.80
2007,02,12,03,30,4.80
2007,02,12,03,31,4.80
2007,02,12,03,32,4.80
2007,02,12,03,33,4.80
2007,02,12,03,34,4.80
2007,02,12,03,35,4.80
2007,02,12,03,36,4.80
2007,02,12,03,37,4.80
2007,02,12,03,38,4.80
2007,02,12,03,39,4.80
2007,02,12,03,40,4.80
2007,02,12,03,41,4.80
2007,02,12,03,42,4.80
2007,02,12,03,43,4.80
2007,02,12,03,44,4.80
2007,02,12,03,45,4.80
2007,02,12,03,46,4.80
2007,02,12,03,47,4.80
2007,02,12,03,48,4.80
2007,02,12,03,49,4.80
2007,02,12,03,50,4.80
2007,02,12,03,51,4.80
2007,02,12,03,52,4.80
2007,02,12,03,53,4.80
2007,02,12,03,54,4.70
2007,02,12,03,55,4.70
2007,02,12,03,56,4.70
2007,02,12,03,57,4.70
2007,02,12,03,58,4.70
2007,02,12,03,59,4.70
2007,02,12,04,00,4.70
2007,02,12,04,01,4.70
2007,02,12,04,02,4.70
2007,02,12,04,03,4.70
2007,02,12,04,04,4.70
2007,02,12,04,05,4.70
2007,02,12,04,06,4.70
2007,02,12,04,07,4.70
2007,02,12,04,08,4.70
2007,02,12,04,09,4.70
2007,02,12,04,10,4.60
2007,02,12,04,11,4.60
2007,02,12,04,12,4.60
2007,02,12,04,13,4.60
2007,02,12,04,14,4.60
2007,02,12,04,15,4.60
2007,02,12,04,16,4.60
2007,02,12,04,17,4.60
2007,02,12,04,18,4.50
2007,02,12,04,19,4.50
2007,02,12,04,20,4.50
2007,02,12,04,21,4.50
2007,02,12,04,22,4.50
2007,02,12,04,23,4.40
2007,02,12,04,24,4.40
2007,02,12,04,25,4.40
2007,02,12,04,26,4.40
2007,02,12,04,27,4.40
2007,02,12,04,28,4.40
2007,02,12,04,29,4.40
2007,02,12,04,30,4.30
2007,02,12,04,31,4.30
2007,02,12,04,32,4.30
2007,02,12,04,33,4.30
2007,02,12,04,34,4.30
2007,02,12,04,35,4.30
2007,02,12,04,36,4.30
2007,02,12,04,37,4.30
2007,02,12,04,38,4.30
2007,02,12,04,39,4.30
2007,02,12,04,40,4.30
2007,02,12,04,41,4.30
2007,02,12,04,42,4.30
2007,02,12,04,43,4.30
2007,02,12,04,44,4.30
2007,02,12,04,45,4.30
2007,02,12,04,46,4.30
2007,02,12,04,47,4.30
2007,02,12,04,48,4.30
2007,02,12,04,49,4.30
2007,02,12,04,50,4.30
2007,02,12,04,51,4.30
2007,02,12,04,52,4.30
2007,02,12,04,53,4.30
2007,02,12,04,54,4.30
2007,02,12,04,55,4.30
2007,02,12,04,56,4.30
2007,02,12,04,57,4.30
2007,02,12,04,58,4.30
2007,02,12,04,59,4.30
2007,02,12,05,00,4.30
2007,02,12,05,01,4.30
2007,02,12,05,02,4.40
2007,02,12,05,03,4.40
2007,02,12,05,04,4.40
2007,02,12,05,05,4.40
2007,02,12,05,06,4.40
2007,02,12,05,07,4.40
2007,02,12,05,08,4.40
2007,02,12,05,09,4.40
2007,02,12,05,10,4.40
2007,02,12,05,11,4.40
2007,02,12,05,12,4.40
2007,02,12,05,13,4.50
2007,02,12,05,14,4.50
2007,02,12,05,15,4.50
2007,02,12,05,16,4.50
2007,02,12,05,17,4.50
2007,02,12,05,18,4.50
2007,02,12,05,19,4.50
2007,02,12,05,20,4.50
2007,02,12,05,21,4.50
2007,02,12,05,22,4.50
2007,02,12,05,23,4.50
2007,02,12,05,24,4.50
2007,02,12,05,25,4.60
2007,02,12,05,26,4.60
2007,02,12,05,27,4.60
2007,02,12,05,28,4.60
2007,02,12,05,29,4.60
2007,02,12,05,30,4.60
2007,02,12,05,31,4.60
2007,02,12,05,32,4.60
2007,02,12,05,33,4.60
2007,02,12,05,34,4.60
2007,02,12,05,35,4.60
2007,02,12,05,36,4.60
2007,02,12,05,37,4.60
2007,02,12,05,38,4.70
2007,02,12,05,39,4.70
2007,02,12,05,40,4.70
2007,02,12,05,41,4.70
2007,02,12,05,42,4.70
2007,02,12,05,43,4.70
2007,02,12,05,44,4.70
2007,02,12,05,45,4.70
2007,02,12,05,46,4.70
2007,02,12,05,47,4.70
2007,02,12,05,48,4.70
2007,02,12,05,49,4.70
2007,02,12,05,50,4.70
2007,02,12,05,51,4.70
2007,02,12,05,52,4.70
2007,02,12,05,53,4.70
2007,02,12,05,54,4.70
2007,02,12,05,55,4.70
2007,02,12,05,56,4.70
2007,02,12,05,57,4.70
2007,02,12,05,58,4.70
2007,02,12,05,59,4.70
2007,02,12,06,00,4.70
2007,02,12,06,01,4.70
2007,02,12,06,02,4.70
2007,02,12,06,03,4.70
2007,02,12,06,04,4.70
2007,02,12,06,05,4.70
2007,02,12,06,06,4.70
2007,02,12,06,07,4.60
2007,02,12,06,08,4.60
2007,02,12,06,09,4.60
2007,02,12,06,10,4.60
2007,02,12,06,11,4.60
2007,02,12,06,12,4.70
2007,02,12,06,13,4.70
2007,02,12,06,14,4.70
2007,02,12,06,15,4.70
2007,02,12,06,16,4.70
2007,02,12,06,17,4.80
2007,02,12,06,18,4.80
2007,02,12,06,19,4.80
2007,02,12,06,20,4.80
2007,02,12,06,21,4.80
2007,02,12,06,22,4.80
2007,02,12,06,23,4.90
2007,02,12,06,24,4.90
2007,02,12,06,25,4.90
2007,02,12,06,26,4.90
2007,02,12,06,27,4.90
2007,02,12,06,28,4.90
2007,02,12,06,29,4.90
2007,02,12,06,30,4.90
2007,02,12,06,31,4.80
2007,02,12,06,32,4.90
2007,02,12,06,33,4.90
2007,02,12,06,34,4.90
2007,02,12,06,35,4.90
2007,02,12,06,36,4.90
2007,02,12,06,37,4.80
2007,02,12,06,38,4.80
2007,02,12,06,39,4.80
2007,02,12,06,40,4.80
2007,02,12,06,41,4.80
2007,02,12,06,42,4.80
2007,02,12,06,43,4.80
2007,02,12,06,44,4.80
2007,02,12,06,45,4.80
2007,02,12,06,46,4.80
2007,02,12,06,47,4.80
2007,02,12,06,48,4.90
2007,02,12,06,49,4.80
2007,02,12,06,50,4.80
2007,02,12,06,51,4.80
2007,02,12,06,52,4.80
2007,02,12,06,53,4.80
2007,02,12,06,54,4.80
2007,02,12,06,55,4.80
2007,02,12,06,56,4.80
2007,02,12,06,57,4.80
2007,02,12,06,58,4.80
2007,02,12,06,59,4.80
2007,02,12,07,00,4.80
2007,02,12,07,01,4.80
2007,02,12,07,02,4.80
2007,02,12,07,03,4.80
2007,02,12,07,04,4.80
2007,02,12,07,05,4.90
2007,02,12,07,06,4.90
2007,02,12,07,07,4.90
2007,02,12,07,08,4.90
2007,02,12,07,09,4.90
2007,02,12,07,10,4.90
2007,02,12,07,11,4.90
2007,02,12,07,12,4.90
2007,02,12,07,13,4.90
2007,02,12,07,14,4.90
2007,02,12,07,15,4.90
2007,02,12,07,16,5.00
2007,02,12,07,17,5.00
2007,02,12,07,18,5.00
2007,02,12,07,19,5.10
2007,02,12,07,20,5.10
2007,02,12,07,21,5.10
2007,02,12,07,22,5.10
2007,02,12,07,23,5.10
2007,02,12,07,24,5.10
2007,02,12,07,25,5.10
2007,02,12,07,26,5.20
2007,02,12,07,27,5.20
2007,02,12,07,28,5.20
2007,02,12,07,29,5.20
2007,02,12,07,30,5.20
2007,02,12,07,31,5.20
2007,02,12,07,32,5.20
2007,02,12,07,33,5.10
2007,02,12,07,34,5.10
2007,02,12,07,35,5.10
2007,02,12,07,36,5.10
2007,02,12,07,37,5.10
2007,02,12,07,38,5.10
2007,02,12,07,39,5.10
2007,02,12,07,40,5.10
2007,02,12,07,41,5.10
2007,02,12,07,42,5.10
2007,02,12,07,43,5.10
2007,02,12,07,44,5.10
2007,02,12,07,45,5.10
2007,02,12,07,46,5.10
2007,02,12,07,47,5.10
2007,02,12,07,48,5.10
2007,02,12,07,49,5.10
2007,02,12,07,50,5.10
2007,02,12,07,51,5.10
2007,02,12,07,52,5.10
2007,02,12,07,53,5.10
2007,02,12,07,54,5.10
2007,02,12,07,55,5.10
2007,02,12,07,56,5.10
2007,02,12,07,57,5.10
2007,02,12,07,58,5.10
2007,02,12,07,59,5.10
2007,02,12,08,00,5.10
2007,02,12,08,01,5.10
2007,02,12,08,02,5.10
2007,02,12,08,03,5.10
2007,02,12,08,04,5.10
2007,02,12,08,05,5.10
2007,02,12,08,06,5.10
2007,02,12,08,07,5.10
2007,02,12,08,08,5.20
2007,02,12,08,09,5.20
2007,02,12,08,10,5.20
2007,02,12,08,11,5.20
2007,02,12,08,12,5.20
2007,02,12,08,13,5.20
2007,02,12,08,14,5.20
2007,02,12,08,15,5.20
2007,02,12,08,16,5.20
2007,02,12,08,17,5.20
2007,02,12,08,18,5.20
2007,02,12,08,19,5.20
2007,02,12,08,20,5.30
2007,02,12,08,21,5.30
2007,02,12,08,22,5.30
2007,02,12,08,23,5.30
2007,02,12,08,24,5.30
2007,02,12,08,25,5.30
2007,02,12,08,26,5.30
2007,02,12,08,27,5.30
2007,02,12,08,28,5.30
2007,02,12,08,29,5.40
2007,02,12,08,30,5.40
2007,02,12,08,31,5.40
2007,02,12,08,32,5.40
2007,02,12,08,33,5.40
2007,02,12,08,34,5.40
2007,02,12,08,35,5.50
2007,02,12,08,36,5.50
2007,02,12,08,37,5.50
2007,02,12,08,38,5.60
2007,02,12,08,39,5.60
2007,02,12,08,40,5.60
2007,02,12,08,41,5.60
2007,02,12,08,42,5.60
2007,02,12,08,43,5.60
2007,02,12,08,44,5.70
2007,02,12,08,45,5.70
2007,02,12,08,46,5.70
2007,02,12,08,47,5.70
2007,02,12,08,48,5.70
2007,02,12,08,49,5.70
2007,02,12,08,50,5.80
2007,02,12,08,51,5.80
2007,02,12,08,52,5.80
2007,02,12,08,53,5.80
2007,02,12,08,54,5.80
2007,02,12,08,55,5.90
2007,02,12,08,56,5.90
2007,02,12,08,57,5.90
2007,02,12,08,58,5.90
2007,02,12,08,59,5.90
2007,02,12,09,00,5.90
2007,02,12,09,01,5.90
2007,02,12,09,02,5.90
2007,02,12,09,03,5.90
2007,02,12,10,25,8.80
2007,02,12,10,26,8.80
2007,02,12,10,27,8.90
2007,02,12,10,28,9.00
2007,02,12,10,29,9.10
2007,02,12,10,30,9.10
2007,02,12,10,31,9.20
2007,02,12,10,32,9.20
2007,02,12,10,33,9.30
2007,02,12,10,34,9.30
2007,02,12,10,35,9.30
2007,02,12,10,36,9.40
2007,02,12,10,37,9.40
2007,02,12,10,38,9.40
2007,02,12,10,39,9.30
2007,02,12,10,40,9.30
2007,02,12,10,41,9.30
2007,02,12,10,42,9.30
2007,02,12,10,43,9.30
2007,02,12,10,44,9.30
2007,02,12,10,45,9.20
2007,02,12,10,46,9.20
2007,02,12,10,47,9.20
2007,02,12,10,48,9.10
2007,02,12,10,49,9.10
2007,02,12,10,50,9.00
2007,02,12,10,51,9.00
2007,02,12,10,52,8.90
2007,02,12,10,53,8.90
2007,02,12,10,54,8.80
2007,02,12,10,55,8.80
2007,02,12,10,56,8.70
2007,02,12,10,57,8.70
2007,02,12,10,58,8.70
2007,02,12,10,59,8.70
2007,02,12,11,00,8.60
2007,02,12,11,01,8.60
2007,02,12,11,02,8.70
2007,02,12,11,03,8.70
2007,02,12,11,04,8.70
2007,02,12,11,05,8.80
2007,02,12,11,06,8.80
2007,02,12,11,07,8.80
2007,02,12,11,08,8.90
2007,02,12,11,09,8.90
2007,02,12,11,10,9.00
2007,02,12,11,11,9.00
2007,02,12,11,12,9.00
2007,02,12,11,13,9.10
2007,02,12,11,14,9.10
2007,02,12,11,15,9.10
2007,02,12,11,16,9.10
2007,02,12,11,17,9.10
2007,02,12,11,18,9.10
2007,02,12,11,19,9.10
2007,02,12,11,20,9.10
2007,02,12,11,21,9.10
2007,02,12,11,22,9.20
2007,02,12,11,23,9.20
2007,02,12,11,24,9.30
2007,02,12,11,25,9.40
2007,02,12,11,26,9.50
2007,02,12,11,27,9.60
2007,02,12,11,28,9.60
2007,02,12,11,29,9.60
2007,02,12,11,30,9.60
2007,02,12,11,31,9.60
2007,02,12,11,32,9.60
2007,02,12,11,33,9.60
2007,02,12,11,34,9.60
2007,02,12,11,35,9.50
2007,02,12,11,36,9.50
2007,02,12,11,37,9.40
2007,02,12,11,38,9.40
2007,02,12,11,39,9.30
2007,02,12,11,40,9.30
2007,02,12,11,41,9.30
2007,02,12,11,42,9.30
2007,02,12,11,43,9.20
2007,02,12,11,44,9.20
2007,02,12,11,45,9.20
2007,02,12,11,46,9.20
2007,02,12,11,47,9.20
2007,02,12,11,48,9.20
2007,02,12,11,49,9.10
2007,02,12,11,50,9.00
2007,02,12,11,51,9.00
2007,02,12,11,52,8.90
2007,02,12,11,53,8.90
2007,02,12,11,54,8.90
2007,02,12,11,55,8.90
2007,02,12,11,56,8.90
2007,02,12,11,57,8.80
2007,02,12,11,58,8.80
2007,02,12,11,59,8.80
2007,02,12,12,00,8.80
2007,02,12,12,01,8.80
2007,02,12,12,02,8.70
2007,02,12,12,03,8.70
2007,02,12,12,04,8.70
2007,02,12,12,05,8.70
2007,02,12,12,06,8.70
2007,02,12,12,07,8.70
2007,02,12,12,08,8.80
2007,02,12,12,09,8.80
2007,02,12,12,10,8.80
2007,02,12,12,11,8.90
2007,02,12,12,12,8.90
2007,02,12,12,13,8.90
2007,02,12,12,14,8.90
2007,02,12,12,15,8.90
2007,02,12,12,16,8.90
2007,02,12,12,17,8.90
2007,02,12,12,18,8.90
2007,02,12,12,19,8.90
2007,02,12,12,20,8.90
2007,02,12,12,21,8.90
2007,02,12,12,22,8.90
2007,02,12,12,23,8.90
2007,02,12,12,24,8.90
2007,02,12,12,25,9.00
2007,02,12,12,26,9.00
2007,02,12,12,27,9.10
2007,02,12,12,28,9.10
2007,02,12,12,29,9.10
2007,02,12,12,30,9.20
2007,02,12,12,31,9.20
2007,02,12,12,32,9.20
2007,02,12,12,33,9.20
2007,02,12,12,34,9.30
2007,02,12,12,35,9.30
2007,02,12,12,36,9.30
2007,02,12,12,37,9.30
2007,02,12,12,38,9.30
2007,02,12,12,39,9.30
2007,02,12,12,40,9.30
2007,02,12,12,41,9.30
2007,02,12,12,42,9.30
2007,02,12,12,43,9.40
2007,02,12,12,44,9.30
2007,02,12,12,45,9.30
2007,02,12,12,46,9.30
2007,02,12,12,47,9.40
2007,02,12,12,48,9.40
2007,02,12,12,49,9.30
2007,02,12,12,50,9.30
2007,02,12,12,51,9.20
2007,02,12,12,52,9.20
2007,02,12,12,53,9.20
2007,02,12,12,54,9.20
2007,02,12,12,55,9.20
2007,02,12,12,56,9.20
2007,02,12,12,57,9.20
2007,02,12,12,58,9.20
2007,02,12,12,59,9.20
2007,02,12,13,00,9.30
2007,02,12,13,01,9.30
2007,02,12,13,02,9.30
2007,02,12,13,03,9.30
2007,02,12,13,04,9.30
2007,02,12,13,05,9.30
2007,02,12,13,06,9.30
2007,02,12,13,07,9.30
2007,02,12,13,08,9.30
2007,02,12,13,09,9.30
2007,02,12,13,10,9.40
2007,02,12,13,11,9.40
2007,02,12,13,12,9.40
2007,02,12,13,13,9.40
2007,02,12,13,14,9.40
2007,02,12,13,15,9.40
2007,02,12,13,16,9.40
2007,02,12,13,17,9.40
2007,02,12,13,18,9.40
2007,02,12,13,19,9.30
2007,02,12,13,20,9.30
2007,02,12,13,21,9.30
2007,02,12,13,22,9.20
2007,02,12,13,23,9.20
2007,02,12,13,24,9.20
2007,02,12,13,25,9.30
2007,02,12,13,26,9.30
2007,02,12,13,27,9.30
2007,02,12,13,28,9.20
2007,02,12,13,29,9.20
2007,02,12,13,30,9.30
2007,02,12,13,31,9.30
2007,02,12,13,32,9.30
2007,02,12,13,33,9.30
2007,02,12,13,34,9.30
2007,02,12,13,35,9.30
2007,02,12,13,36,9.30
2007,02,12,13,37,9.30
2007,02,12,13,38,9.30
2007,02,12,13,39,9.30
2007,02,12,13,40,9.20
2007,02,12,13,41,9.20
2007,02,12,13,42,9.20
2007,02,12,13,43,9.10
2007,02,12,13,44,9.10
2007,02,12,13,45,9.10
2007,02,12,13,46,9.10
2007,02,12,13,47,9.20
2007,02,12,13,48,9.20
2007,02,12,13,49,9.20
2007,02,12,13,50,9.20
2007,02,12,13,51,9.20
2007,02,12,13,52,9.20
2007,02,12,13,53,9.20
2007,02,12,13,54,9.20
2007,02,12,13,55,9.20
2007,02,12,13,56,9.20
2007,02,12,13,57,9.20
2007,02,12,13,58,9.30
2007,02,12,13,59,9.30
2007,02,12,14,00,9.30
2007,02,12,14,01,9.30
2007,02,12,14,02,9.30
2007,02,12,14,03,9.30
2007,02,12,14,04,9.30
2007,02,12,14,05,9.30
2007,02,12,14,06,9.30
2007,02,12,14,07,9.30
2007,02,12,14,08,9.40
2007,02,12,14,09,9.40
2007,02,12,14,10,9.40
2007,02,12,14,11,9.40
2007,02,12,14,12,9.40
2007,02,12,14,13,9.50
2007,02,12,14,14,9.50
2007,02,12,14,15,9.50
2007,02,12,14,16,9.50
2007,02,12,14,17,9.50
2007,02,12,14,18,9.60
2007,02,12,14,19,9.50
2007,02,12,14,20,9.50
2007,02,12,14,21,9.50
2007,02,12,14,22,9.50
2007,02,12,14,23,9.50
2007,02,12,14,24,9.50
2007,02,12,14,25,9.50
2007,02,12,14,26,9.50
2007,02,12,14,27,9.50
2007,02,12,14,28,9.50
2007,02,12,14,29,9.40
2007,02,12,14,30,9.40
2007,02,12,14,31,9.40
2007,02,12,14,32,9.40
2007,02,12,14,33,9.40
2007,02,12,14,34,9.30
2007,02,12,14,35,9.30
2007,02,12,14,36,9.40
2007,02,12,14,37,9.40
2007,02,12,14,38,9.40
2007,02,12,14,39,9.40
2007,02,12,14,40,9.40
2007,02,12,14,41,9.50
2007,02,12,14,42,9.50
2007,02,12,14,43,9.50
2007,02,12,14,44,9.60
2007,02,12,14,45,9.60
2007,02,12,14,46,9.60
2007,02,12,14,47,9.50
2007,02,12,14,48,9.50
2007,02,12,14,49,9.50
2007,02,12,14,50,9.60
2007,02,12,14,51,9.60
2007,02,12,14,52,9.60
2007,02,12,14,53,9.60
2007,02,12,14,54,9.60
2007,02,12,14,55,9.60
2007,02,12,14,56,9.60
2007,02,12,14,57,9.60
2007,02,12,14,58,9.60
2007,02,12,14,59,9.60
2007,02,12,15,00,9.60
2007,02,12,15,01,9.50
2007,02,12,15,02,9.50
2007,02,12,15,03,9.50
2007,02,12,15,04,9.50
2007,02,12,15,05,9.50
2007,02,12,15,06,9.50
2007,02,12,15,07,9.50
2007,02,12,15,08,9.50
2007,02,12,15,09,9.40
2007,02,12,15,10,9.40
2007,02,12,15,11,9.40
2007,02,12,15,12,9.40
2007,02,12,15,13,9.40
2007,02,12,15,14,9.40
2007,02,12,15,15,9.40
2007,02,12,15,16,9.40
2007,02,12,15,17,9.40
2007,02,12,15,18,9.40
2007,02,12,15,19,9.40
2007,02,12,15,20,9.40
2007,02,12,15,21,9.40
2007,02,12,15,22,9.40
2007,02,12,15,23,9.40
2007,02,12,15,24,9.40
2007,02,12,15,25,9.40
2007,02,12,15,26,9.40
2007,02,12,15,27,9.40
2007,02,12,15,28,9.40
2007,02,12,15,29,9.40
2007,02,12,15,30,9.40
2007,02,12,15,31,9.40
2007,02,12,15,32,9.40
2007,02,12,15,33,9.40
2007,02,12,15,34,9.50
2007,02,12,15,35,9.50
2007,02,12,15,36,9.50
2007,02,12,15,37,9.50
2007,02,12,15,38,9.50
2007,02,12,15,39,9.50
2007,02,12,15,40,9.50
2007,02,12,15,41,9.50
2007,02,12,15,42,9.60
2007,02,12,15,43,9.60
2007,02,12,15,44,9.60
2007,02,12,15,45,9.60
2007,02,12,15,46,9.60
2007,02,12,15,47,9.60
2007,02,12,15,48,9.60
2007,02,12,15,49,9.60
2007,02,12,15,50,9.60
2007,02,12,15,51,9.60
2007,02,12,15,52,9.60
2007,02,12,15,53,9.60
2007,02,12,15,54,9.60
2007,02,12,15,55,9.60
2007,02,12,15,56,9.60
2007,02,12,15,57,9.60
2007,02,12,15,58,9.60
2007,02,12,15,59,9.60
2007,02,12,16,00,9.60
2007,02,12,16,01,9.60
2007,02,12,16,02,9.60
2007,02,12,16,03,9.60
2007,02,12,16,04,9.60
2007,02,12,16,05,9.60
2007,02,12,16,06,9.60
2007,02,12,16,07,9.60
2007,02,12,16,08,9.60
2007,02,12,16,09,9.60
2007,02,12,16,10,9.60
2007,02,12,16,11,9.50
2007,02,12,16,12,9.50
2007,02,12,16,13,9.50
2007,02,12,16,14,9.40
2007,02,12,16,15,9.40
2007,02,12,16,16,9.40
2007,02,12,16,17,9.30
2007,02,12,16,18,9.30
2007,02,12,16,19,9.30
2007,02,12,16,20,9.30
2007,02,12,16,21,9.30
2007,02,12,16,22,9.20
2007,02,12,16,23,9.20
2007,02,12,16,24,9.20
2007,02,12,16,25,9.20
2007,02,12,16,26,9.20
2007,02,12,16,27,9.20
2007,02,12,16,28,9.20
2007,02,12,16,29,9.20
2007,02,12,16,30,9.20
2007,02,12,16,31,9.20
2007,02,12,16,32,9.20
2007,02,12,16,33,9.20
2007,02,12,16,34,9.10
2007,02,12,16,35,9.10
2007,02,12,16,36,9.10
2007,02,12,16,37,9.10
2007,02,12,16,38,9.10
2007,02,12,16,39,9.10
2007,02,12,16,40,9.10
2007,02,12,16,41,9.00
2007,02,12,16,42,9.00
2007,02,12,16,43,9.00
2007,02,12,16,44,9.00
2007,02,12,16,45,9.00
2007,02,12,16,46,8.90
2007,02,12,16,47,8.90
2007,02,12,16,48,8.90
2007,02,12,16,49,8.90
2007,02,12,16,50,8.90
2007,02,12,16,51,8.90
2007,02,12,16,52,8.90
2007,02,12,16,53,8.90
2007,02,12,16,54,8.80
2007,02,12,16,55,8.80
2007,02,12,16,56,8.80
2007,02,12,16,57,8.80
2007,02,12,16,58,8.80
2007,02,12,16,59,8.80
2007,02,12,17,00,8.80
2007,02,12,17,01,8.80
2007,02,12,17,02,8.80
2007,02,12,17,03,8.70
2007,02,12,17,04,8.70
2007,02,12,17,05,8.70
2007,02,12,17,06,8.70
2007,02,12,17,07,8.70
2007,02,12,17,08,8.70
2007,02,12,17,09,8.70
2007,02,12,17,10,8.70
2007,02,12,17,11,8.70
2007,02,12,17,12,8.70
2007,02,12,17,13,8.70
2007,02,12,17,14,8.70
2007,02,12,17,15,8.70
2007,02,12,17,16,8.70
2007,02,12,17,17,8.60
2007,02,12,17,18,8.60
2007,02,12,17,19,8.60
2007,02,12,17,20,8.60
2007,02,12,17,21,8.60
2007,02,12,17,22,8.60
2007,02,12,17,23,8.60
2007,02,12,17,24,8.60
2007,02,12,17,25,8.60
2007,02,12,17,26,8.60
2007,02,12,17,27,8.60
2007,02,12,17,28,8.60
2007,02,12,17,29,8.50
2007,02,12,17,30,8.50
2007,02,12,17,31,8.50
2007,02,12,17,32,8.50
2007,02,12,17,33,8.50
2007,02,12,17,34,8.50
2007,02,12,17,35,8.50
2007,02,12,17,36,8.50
2007,02,12,17,37,8.40
2007,02,12,17,38,8.40
2007,02,12,17,39,8.40
2007,02,12,17,40,8.40
2007,02,12,17,41,8.40
2007,02,12,17,42,8.40
2007,02,12,17,43,8.40
2007,02,12,17,44,8.40
2007,02,12,17,45,8.40
2007,02,12,17,46,8.40
2007,02,12,17,47,8.40
2007,02,12,17,48,8.40
2007,02,12,17,49,8.40
2007,02,12,17,50,8.40
2007,02,12,17,51,8.40
2007,02,12,17,52,8.40
2007,02,12,17,53,8.40
2007,02,12,17,54,8.40
2007,02,12,17,55,8.40
2007,02,12,17,56,8.40
2007,02,12,17,57,8.40
2007,02,12,17,58,8.40
2007,02,12,17,59,8.30
2007,02,12,18,00,8.40
2007,02,12,18,01,8.30
2007,02,12,18,02,8.30
2007,02,12,18,03,8.30
2007,02,12,18,04,8.30
2007,02,12,18,05,8.30
2007,02,12,18,06,8.30
2007,02,12,18,07,8.30
2007,02,12,18,08,8.30
2007,02,12,18,09,8.30
2007,02,12,18,10,8.30
2007,02,12,18,11,8.30
2007,02,12,18,12,8.30
2007,02,12,18,13,8.30
2007,02,12,18,14,8.30
2007,02,12,18,15,8.30
2007,02,12,18,16,8.30
2007,02,12,18,17,8.30
2007,02,12,18,18,8.30
2007,02,12,18,19,8.30
2007,02,12,18,20,8.30
2007,02,12,18,21,8.30
2007,02,12,18,22,8.30
2007,02,12,18,23,8.30
2007,02,12,18,24,8.30
2007,02,12,18,25,8.30
2007,02,12,18,26,8.30
2007,02,12,18,27,8.20
2007,02,12,18,28,8.20
2007,02,12,18,29,8.20
2007,02,12,18,30,8.20
2007,02,12,18,31,8.20
2007,02,12,18,32,8.20
2007,02,12,18,33,8.20
2007,02,12,18,34,8.20
2007,02,12,18,35,8.20
2007,02,12,18,36,8.20
2007,02,12,18,37,8.20
2007,02,12,18,38,8.20
2007,02,12,18,39,8.20
2007,02,12,18,40,8.20
2007,02,12,18,41,8.20
2007,02,12,18,42,8.20
2007,02,12,18,43,8.20
2007,02,12,18,44,8.20
2007,02,12,18,45,8.20
2007,02,12,18,46,8.20
2007,02,12,18,47,8.10
2007,02,12,18,48,8.10
2007,02,12,18,49,8.10
2007,02,12,18,50,8.10
2007,02,12,18,51,8.10
2007,02,12,18,52,8.10
2007,02,12,18,53,8.10
2007,02,12,18,54,8.10
2007,02,12,18,55,8.10
2007,02,12,18,56,8.10
2007,02,12,18,57,8.10
2007,02,12,18,58,8.10
2007,02,12,18,59,8.10
2007,02,12,19,00,8.10
2007,02,12,19,01,8.00
2007,02,12,19,02,8.00
2007,02,12,19,03,8.00
2007,02,12,19,04,8.00
2007,02,12,19,05,8.00
2007,02,12,19,06,8.00
2007,02,12,19,07,8.00
2007,02,12,19,08,7.90
2007,02,12,19,09,7.90
2007,02,12,19,10,7.90
2007,02,12,19,11,7.90
2007,02,12,19,12,7.90
2007,02,12,19,13,7.90
2007,02,12,19,14,7.90
2007,02,12,19,15,7.90
2007,02,12,19,16,7.90
2007,02,12,19,17,7.90
2007,02,12,19,18,7.90
2007,02,12,19,19,7.90
2007,02,12,19,20,7.90
2007,02,12,19,21,7.90
2007,02,12,19,22,7.80
2007,02,12,19,23,7.80
2007,02,12,19,24,7.80
2007,02,12,19,25,7.80
2007,02,12,19,26,7.80
2007,02,12,19,27,7.80
2007,02,12,19,28,7.80
2007,02,12,19,29,7.80
2007,02,12,19,30,7.80
2007,02,12,19,31,7.80
2007,02,12,19,32,7.80
2007,02,12,19,33,7.70
2007,02,12,19,34,7.70
2007,02,12,19,35,7.70
2007,02,12,19,36,7.70
2007,02,12,19,37,7.70
2007,02,12,19,38,7.70
2007,02,12,19,39,7.70
2007,02,12,19,40,7.70
2007,02,12,19,41,7.70
2007,02,12,19,42,7.70
2007,02,12,19,43,7.70
2007,02,12,19,44,7.70
2007,02,12,19,45,7.70
2007,02,12,19,46,7.70
2007,02,12,19,47,7.70
2007,02,12,19,48,7.70
2007,02,12,19,49,7.70
2007,02,12,19,50,7.70
2007,02,12,19,51,7.70
2007,02,12,19,52,7.70
2007,02,12,19,53,7.70
2007,02,12,19,54,7.70
2007,02,12,19,55,7.70
2007,02,12,19,56,7.70
2007,02,12,19,57,7.70
2007,02,12,19,58,7.70
2007,02,12,19,59,7.70
2007,02,12,20,00,7.70
2007,02,12,20,01,7.70
2007,02,12,20,02,7.70
2007,02,12,20,03,7.70
2007,02,12,20,04,7.70
2007,02,12,20,05,7.70
2007,02,12,20,06,7.70
2007,02,12,20,07,7.70
2007,02,12,20,08,7.70
2007,02,12,20,09,7.70
2007,02,12,20,10,7.70
2007,02,12,20,11,7.70
2007,02,12,20,12,7.70
2007,02,12,20,13,7.70
2007,02,12,20,14,7.70
2007,02,12,20,15,7.60
2007,02,12,20,16,7.60